Weather History for KBPK - December, 2012

Change the Weather History Date:

Sunday, December 9, 2012

  Actual Average (KHRO) Record (KHRO)
Temperature  
Mean Temperature 51 °F 39 °F  
Max Temperature 61 °F 49 °F 75 °F (1965)
Min Temperature 39 °F 30 °F -2 °F (1917)
Degree Days  
Heating Degree Days 14 26  
Month to date heating degree days 219  
Since 1 July heating degree days 983  
Cooling Degree Days 0 0  
Month to date cooling degree days 0  
Year to date cooling degree days 1416  
Growing Degree Days 1 (Base 50)    
Moisture  
Dew Point 51 °F    
Average Humidity 91    
Maximum Humidity 100    
Minimum Humidity 65    
Precipitation  
Precipitation 0.03 in 0.11 in 2.03 in (1971)
Month to date precipitation 1.07  
Year to date precipitation 42.01  
Snow  
Snow 0.00 in 0.00 in 1.00 in (1961)
Month to date snowfall 0.0  
Since 1 July snowfall 0.5  
Snow Depth -    
Sea Level Pressure  
Sea Level Pressure 29.80 in    
Wind  
Wind Speed 6 mph (NE)    
Max Wind Speed 10 mph    
Max Gust Speed 20 mph    
Visibility 4 miles    
Events Fog , Rain , Thunderstorm    
T = Trace of Precipitation, MM = Missing Value Source: NWS Daily Summary

Daily Weather History Graph

Daily Weather History Graph

Search for Another Location

Airport or City:

Trip Planner

Search our weather history database for the weather conditions in past years. The results will help you decide how hot, cold, wet, or windy it might be!

Date:

Astronomy

Dec. 09, 2012 Rise Set
Actual Time 7:10 AM CST 4:54 PM CST
Civil Twilight 6:41 AM CST 5:23 PM CST
Nautical Twilight 6:09 AM CST 5:55 PM CST
Astronomical Twilight 5:38 AM CST 6:26 PM CST
Moon 2:48 AM CST (12/9) 1:57 PM CST (12/9)
Length of Visible Light 10h 41m
Length of Day
9h 44m
Waning Crescent, 18% of the Moon is Illuminated
Dec 9
Waning Crescent
Dec 13
New
Dec 19
First Quarter
Dec 28
Full
Jan 4
Last Quarter

Hourly Weather History & Observations

Time (CST) Temp. Windchill Dew Point Humidity Pressure Visibility Wind Dir Wind Speed Gust Speed Precip Events Conditions
12:30 AM 53.6 °F - 51.8 °F 94% 29.83 in 3.0 mi East 6.9 mph - N/A   Overcast
12:53 AM 54.0 °F - 52.0 °F 93% 29.80 in 3.0 mi ESE 6.9 mph - N/A   Overcast
1:49 AM 53.6 °F - 51.8 °F 94% 29.81 in 2.5 mi ESE 8.1 mph - N/A   Overcast
1:53 AM 53.1 °F - 52.0 °F 96% 29.80 in 2.0 mi ESE 8.1 mph - N/A   Overcast
2:25 AM 53.6 °F - 51.8 °F 94% 29.80 in 3.0 mi East 4.6 mph - N/A   Overcast
2:53 AM 53.1 °F - 52.0 °F 96% 29.79 in 3.0 mi East 5.8 mph - N/A   Overcast
3:03 AM 53.6 °F - 51.8 °F 94% 29.80 in 2.5 mi East 4.6 mph - N/A   Overcast
3:17 AM 53.6 °F - 51.8 °F 94% 29.80 in 2.5 mi ENE 3.5 mph - N/A   Overcast
3:33 AM 53.6 °F - 51.8 °F 94% 29.80 in 1.8 mi East 3.5 mph - N/A   Overcast
3:53 AM 53.1 °F - 52.0 °F 96% 29.79 in 1.5 mi ESE 4.6 mph - N/A   Overcast
4:53 AM 52.0 °F - 51.1 °F 97% 29.78 in 0.5 mi East 4.6 mph - N/A Fog Fog
5:53 AM 52.0 °F - 51.1 °F 97% 29.78 in 0.5 mi East 6.9 mph - N/A Fog Fog
6:53 AM 52.0 °F - 52.0 °F 100% 29.76 in 0.5 mi ENE 8.1 mph - 0.00 in Fog , Rain Light Rain
7:08 AM 51.8 °F - 51.8 °F 100% 29.78 in 0.2 mi East 6.9 mph - 0.00 in Fog Fog
7:53 AM 52.0 °F - 52.0 °F 100% 29.76 in 0.2 mi East 5.8 mph - 0.00 in Fog , Thunderstorm Unknown
8:08 AM 53.6 °F - 53.6 °F 100% 29.78 in 0.8 mi Calm Calm - 0.00 in Rain , Thunderstorm Light Thunderstorms and Rain
8:11 AM 53.6 °F - 53.6 °F 100% 29.79 in 2.0 mi SSW 3.5 mph - 0.00 in Rain , Thunderstorm Light Rain
8:14 AM 53.6 °F - 53.6 °F 100% 29.79 in 3.0 mi SSE 3.5 mph - 0.00 in Thunderstorm Overcast
8:28 AM 53.6 °F - 53.6 °F 100% 29.78 in 2.5 mi Calm Calm - 0.00 in Thunderstorm Overcast
8:35 AM 53.6 °F - 53.6 °F 100% 29.78 in 2.5 mi SE 3.5 mph - 0.00 in   Overcast
8:45 AM 55.4 °F - 53.6 °F 94% 29.78 in 3.0 mi ESE 3.5 mph - 0.00 in   Overcast
8:53 AM 55.0 °F - 54.0 °F 96% 29.77 in 3.0 mi SE 4.6 mph - 0.00 in   Overcast
9:06 AM 55.4 °F - 55.4 °F 100% 29.78 in 2.5 mi SE 4.6 mph - N/A   Overcast
9:18 AM 55.4 °F - 55.4 °F 100% 29.78 in 3.0 mi SE 4.6 mph - N/A   Overcast
9:53 AM 59.0 °F - 55.9 °F 90% 29.78 in 5.0 mi SSE 3.5 mph - N/A   Overcast
10:05 AM 60.8 °F - 57.2 °F 88% 29.78 in 6.0 mi SE 6.9 mph - 0.00 in Rain Light Rain
10:42 AM 60.8 °F - 57.2 °F 88% 29.79 in 7.0 mi Variable 3.5 mph - 0.00 in   Overcast
10:53 AM 61.0 °F - 57.0 °F 87% 29.77 in 7.0 mi SSW 4.6 mph - 0.00 in   Overcast
11:12 AM 60.8 °F - 57.2 °F 88% 29.77 in 4.0 mi South 4.6 mph - 0.02 in Rain Light Rain
11:53 AM 61.0 °F - 59.0 °F 93% 29.74 in 5.0 mi WNW 3.5 mph - 0.03 in Rain Light Rain
12:02 PM 60.8 °F - 59.0 °F 94% 29.75 in 4.0 mi WNW 3.5 mph - 0.00 in   Mostly Cloudy
12:06 PM 60.8 °F - 59.0 °F 94% 29.75 in 4.0 mi NW 4.6 mph - 0.00 in   Overcast
12:42 PM 60.8 °F - 57.2 °F 88% 29.73 in 5.0 mi NW 5.8 mph - 0.00 in Thunderstorm Overcast
12:53 PM 59.0 °F - 57.0 °F 93% 29.73 in 6.0 mi NW 6.9 mph - 0.00 in Thunderstorm Overcast
1:07 PM 57.2 °F - 55.4 °F 94% 29.74 in 4.0 mi NW 9.2 mph - N/A   Overcast
1:16 PM 57.2 °F - 55.4 °F 94% 29.74 in 3.0 mi NW 9.2 mph 16.1 mph N/A   Overcast
1:53 PM 55.9 °F - 54.0 °F 93% 29.74 in 6.0 mi Variable 4.6 mph - N/A   Overcast
2:17 PM 57.2 °F - 53.6 °F 88% 29.75 in 6.0 mi Variable 6.9 mph - N/A   Overcast
2:33 PM 57.2 °F - 51.8 °F 82% 29.75 in 7.0 mi NNW 10.4 mph 16.1 mph N/A   Overcast
2:53 PM 55.9 °F - 52.0 °F 87% 29.75 in 6.0 mi NNW 5.8 mph - N/A   Overcast
3:05 PM 53.6 °F - 51.8 °F 94% 29.77 in 5.0 mi NNW 10.4 mph 19.6 mph N/A   Overcast
3:49 PM 51.8 °F - 46.4 °F 82% 29.81 in 5.0 mi NNW 8.1 mph - N/A   Haze
3:53 PM 51.1 °F - 46.9 °F 86% 29.80 in 5.0 mi NW 9.2 mph - N/A   Overcast
4:53 PM 50.0 °F - 46.0 °F 86% 29.82 in 7.0 mi NW 6.9 mph - N/A   Overcast
5:46 PM 48.2 °F - 44.6 °F 87% 29.85 in 8.0 mi NW 6.9 mph - N/A   Overcast
5:53 PM 48.9 °F - 44.1 °F 83% 29.86 in 8.0 mi NNW 4.6 mph - N/A   Overcast
6:03 PM 48.2 °F - 44.6 °F 87% 29.86 in 8.0 mi NNW 3.5 mph - N/A   Overcast
6:13 PM 48.2 °F - 44.6 °F 87% 29.86 in 8.0 mi NW 5.8 mph - N/A   Overcast
6:53 PM 48.0 °F - 43.0 °F 83% 29.87 in 8.0 mi Variable 5.8 mph - N/A   Overcast
7:53 PM 46.9 °F - 39.9 °F 77% 29.88 in 9.0 mi NW 6.9 mph - N/A   Overcast
8:53 PM 46.0 °F 41.9 °F 37.9 °F 73% 29.89 in 8.0 mi NNW 8.1 mph 17.3 mph N/A   Overcast
9:53 PM 45.0 °F 41.8 °F 37.0 °F 74% 29.90 in 8.0 mi North 5.8 mph - N/A   Overcast
10:53 PM 43.0 °F 39.5 °F 35.1 °F 74% 29.92 in 9.0 mi North 5.8 mph - N/A   Overcast
11:33 PM 41.0 °F 34.7 °F 30.2 °F 65% 29.93 in 10.0 mi NNW 10.4 mph - N/A   Scattered Clouds
11:53 PM 39.9 °F 35.1 °F 30.9 °F 70% 29.91 in 10.0 mi NNW 6.9 mph - N/A   Clear